Little Rock AFB, AR

1:48 PM CDT on August 16, 2017 (GMT -0500)
Little Rock Air Force Base

Weather History for KLRF - September, 2013

Change the Weather History Date:

Sunday, September 15, 2013

  Actual Average Record
Temperature  
Mean Temperature 68 °F -  
Max Temperature 89 °F 83 °F 98 °F (1997)
Min Temperature 48 °F 62 °F 48 °F (2013)
Cooling Degree Days 4    
Growing Degree Days 18 (Base 50)    
Moisture  
Dew Point 52 °F    
Average Humidity 62    
Maximum Humidity 91    
Minimum Humidity 27    
Precipitation  
Precipitation 0.00 in - - ()
Sea Level Pressure  
Sea Level Pressure 30.07 in    
Wind  
Wind Speed 2 mph (SW)    
Max Wind Speed 7 mph    
Max Gust Speed -    
Visibility 10 miles    
Events      
Averages and records for this station are not official NWS values.
T = Trace of Precipitation, MM = Missing Value Source: NWS Daily Summary

Daily Weather History Graph

Daily Weather History Graph

Search for Another Location

Airport or City:

Trip Planner

Search our weather history database for the weather conditions in past years. The results will help you decide how hot, cold, wet, or windy it might be!

Date:

Astronomy

Sep. 15, 2013 Rise Set
Actual Time 6:51 AM CDT 7:15 PM CDT
Civil Twilight 6:26 AM CDT 7:40 PM CDT
Nautical Twilight 5:56 AM CDT 8:10 PM CDT
Astronomical Twilight 5:26 AM CDT 8:40 PM CDT
Moon 4:36 PM CDT (9/15) 2:38 AM CDT (9/15)
Length of Visible Light 13h 14m
Length of Day
12h 23m
Waxing Gibbous, 82% of the Moon is Illuminated
Sep 15
Waxing Gibbous
Sep 19
Full
Sep 26
Last Quarter
Oct 4
New
Oct 11
First Quarter

Hourly Weather History & Observations

Time (CDT) Temp. Heat Index Dew Point Humidity Pressure Visibility Wind Dir Wind Speed Gust Speed Precip Events Conditions
12:58 AM 54.5 °F - 50.0 °F 85% 30.07 in 10.0 mi West 2.3 mph - N/A   Clear
1:58 AM 53.1 °F - 49.6 °F 88% 30.07 in 10.0 mi Calm Calm - N/A   Clear
2:58 AM 51.3 °F - 48.7 °F 91% 30.06 in 10.0 mi West 1.2 mph - N/A   Clear
3:58 AM 50.9 °F - 47.3 °F 87% 30.05 in 10.0 mi Calm Calm - N/A   Clear
4:58 AM 49.5 °F - 45.7 °F 87% 30.06 in 10.0 mi West 2.3 mph - N/A   Clear
5:58 AM 49.1 °F - 46.6 °F 91% 30.07 in 10.0 mi West 2.3 mph - N/A   Clear
6:58 AM 48.7 °F - 46.2 °F 91% 30.09 in 10.0 mi Calm Calm - N/A   Clear
7:58 AM 53.2 °F - 49.6 °F 88% 30.10 in 10.0 mi WNW 1.2 mph - N/A   Clear
8:58 AM 61.5 °F - 52.9 °F 73% 30.11 in 10.0 mi Calm Calm - N/A   Clear
9:58 AM 68.7 °F - 54.0 °F 59% 30.12 in 10.0 mi South 2.3 mph - N/A   Clear
10:58 AM 75.4 °F - 51.4 °F 43% 30.12 in 10.0 mi SSE 5.8 mph - N/A   Clear
11:58 AM 79.2 °F - 48.0 °F 33% 30.11 in 10.0 mi SSE 5.8 mph - N/A   Clear
12:58 PM 82.4 °F - 50.4 °F 33% 30.09 in 10.0 mi Variable 3.5 mph - N/A   Clear
1:58 PM 84.2 °F - 50.7 °F 31% 30.08 in 10.0 mi West 5.8 mph - N/A   Clear
2:58 PM 87.1 °F - 50.9 °F 29% 30.06 in 10.0 mi Variable 1.2 mph - N/A   Clear
3:58 PM 89.2 °F - 51.4 °F 27% 30.04 in 10.0 mi Variable 6.9 mph - N/A   Clear
4:58 PM 87.8 °F - 52.9 °F 30% 30.04 in 10.0 mi East 5.8 mph - N/A   Clear
5:58 PM 87.6 °F - 52.7 °F 30% 30.04 in 10.0 mi East 5.8 mph - N/A   Clear
6:58 PM 83.7 °F 82.3 °F 53.6 °F 35% 30.05 in 10.0 mi SSE 5.8 mph - N/A   Clear
7:58 PM 72.1 °F - 57.7 °F 60% 30.05 in 10.0 mi SE 4.6 mph - N/A   Clear
8:58 PM 68.5 °F - 57.0 °F 67% 30.06 in 10.0 mi East 3.5 mph - N/A   Clear
9:58 PM 66.0 °F - 57.2 °F 73% 30.06 in 10.0 mi Variable 2.3 mph - N/A   Clear
10:58 PM 64.0 °F - 57.4 °F 79% 30.06 in 10.0 mi NW 1.2 mph - N/A   Clear
11:58 PM 64.4 °F - 57.0 °F 77% 30.07 in 10.0 mi West 2.3 mph - N/A   Clear